Theta_e
316 316 318 317 315 314 315 316 317 316 319 318 318 318 318 317 317 317 317 317 314 316 319 321 322 322 322 322 319 317 316 316 316 316 315 316 317 317 317 317 317 318 318 319
317 317 317 316 314 314 314 314 315 317 318 317 317 315 315 316 316 316 317 318 316 314 315 318 319 321 322 322 321 319 318 317 317 316 317 316 316 317 317 318 318 319 319 319
315 314 313 314 314 314 313 313 314 314 313 315 316 316 318 317 316 316 317 317 317 316 314 316 316 318 321 322 322 321 320 320 319 318 318 318 319 318 318 319 320 321 321 321
315 313 314 310 310 311 312 312 312 313 314 314 314 317 318 318 315 316 316 316 317 316 316 315 316 317 318 320 321 321 322 322 321 321 320 321 321 321 321 321 321 321 321 321
315 314 312 310 309 309 310 309 312 316 317 317 317 317 318 314 313 315 315 314 315 315 315 314 314 315 317 318 319 320 321 322 322 322 322 322 322 321 321 321 320 318 315 314
314 313 313 308 313 315 314 313 315 316 315 315 317 320 320 318 316 317 316 316 314 312 312 312 313 315 319 320 319 319 320 320 321 321 320 320 320 318 315 313 310 307 306 306
315 314 313 310 310 312 314 313 313 315 315 316 317 316 315 316 316 315 313 313 311 311 312 315 315 318 320 322 322 319 317 318 318 319 318 318 314 310 307 304 301 299 298 296
314 315 314 309 316 316 313 314 314 314 315 316 315 314 314 315 316 313 312 312 314 316 315 314 316 318 318 314 311 315 316 314 312 312 310 308 306 300 298 297 294 291 291 289
313 313 310 310 314 315 312 314 315 314 315 315 314 314 315 315 315 311 310 310 310 311 311 311 312 311 307 306 309 308 306 302 302 300 299 299 298 294 293 293 291 289 287 285
309 310 310 310 309 310 308 311 311 312 314 314 315 314 314 313 312 309 308 307 307 307 307 305 306 307 305 305 305 303 298 296 296 295 294 294 294 294 292 291 290 288 286 284
310 309 310 310 309 306 306 306 306 306 309 304 305 306 308 310 304 304 303 302 302 301 300 299 299 299 300 300 300 295 293 292 291 290 290 289 289 290 290 290 291 290 287 285
311 307 306 307 307 303 302 302 301 300 301 298 298 298 300 296 295 294 294 295 295 294 294 293 292 292 293 294 294 294 292 291 290 289 288 287 285 284 285 287 289 289 286 285
306 303 304 305 304 298 298 297 297 295 293 293 293 292 292 291 290 289 289 289 289 288 287 287 289 288 289 290 290 289 288 287 286 286 285 284 283 283 282 281 281 282 282 281
301 301 306 303 300 295 294 294 292 290 289 288 289 288 288 288 287 287 286 286 286 286 285 285 285 285 285 286 286 285 284 285 284 284 283 283 283 283 282 282 282 281 280 279
295 296 297 299 294 292 291 291 290 288 287 286 285 285 285 285 284 283 283 283 282 282 282 283 283 283 284 285 284 284 284 283 283 283 283 283 283 283 282 282 281 279 278 277
292 294 296 295 291 289 289 289 289 287 286 285 284 283 282 281 280 280 280 280 280 280 280 280 280 280 282 282 282 281 281 281 281 281 280 280 280 281 280 280 280 278 277 276
291 293 291 291 289 287 286 286 285 285 283 282 281 280 279 279 278 278 277 277 277 277 277 277 277 279 280 279 279 279 278 278 278 278 277 277 277 277 277 277 276 275 274 273
287 286 286 286 286 285 283 283 281 280 280 279 278 277 277 277 276 276 276 276 276 275 275 276 276 277 278 278 278 277 277 276 276 275 276 276 276 275 275 275 274 273 272 270
283 284 284 283 283 282 282 280 279 278 277 276 275 275 275 274 274 274 275 275 275 274 274 274 275 275 275 275 275 275 275 275 274 274 273 273 273 272 272 271 271 270 270 269
281 280 280 280 279 279 278 278 277 276 276 275 275 274 274 274 274 273 273 272 272 272 272 272 273 272 272 273 273 273 273 272 272 271 270 270 270 270 269 268 268 268 267 267
280 279 278 278 277 277 277 276 275 275 274 273 273 272 272 272 272 273 272 271 270 270 270 270 270 270 270 270 270 270 269 269 268 268 268 267 267 266 266 266 265 265 265 264
278 278 277 276 276 275 275 275 275 274 274 274 273 273 272 272 271 269 269 269 268 268 268 268 268 268 268 268 267 267 267 266 266 266 265 265 265 264 264 263 263 262 262 262
278 277 276 276 275 275 274 274 273 273 272 271 271 271 270 270 270 270 269 267 267 267 266 266 266 266 266 266 266 265 265 265 264 264 263 263 263 262 262 262 261 261 261 260
277 277 276 276 275 275 274 274 273 273 271 271 270 270 270 269 268 267 266 267 267 266 266 265 265 265 265 265 265 264 264 263 263 263 262 262 262 261 261 260 260 260 260 259
275 275 275 275 274 274 273 272 271 271 270 269 269 268 268 268 267 266 266 266 265 265 264 264 264 264 264 264 264 263 263 262 262 262 261 261 261 260 260 260 259 259 259 259
273 273 272 271 272 271 271 270 270 270 269 268 266 266 267 267 267 266 265 265 264 264 263 263 263 263 263 263 262 262 262 261 261 261 260 260 260 259 259 259 258 258 258 258
270 271 271 270 269 269 269 268 268 266 267 266 265 265 266 266 265 265 264 264 263 263 262 262 262 262 262 262 261 261 261 261 260 260 260 259 259 258 258 258 258 258 258 258
Wind_Speed
2 4 5 5 7 7 5 8 6 6 11 11 14 15 15 15 16 15 14 13 9 9 11 13 19 24 27 27 29 33 33 34 41 38 35 35 34 34 34 35 35 33 30 28
3 9 8 7 8 10 13 14 13 14 12 15 15 13 12 16 16 15 14 14 12 9 9 10 17 23 24 25 29 32 32 36 31 31 32 33 34 34 33 33 31 29 33 33
2 2 1 6 8 14 8 9 6 10 12 3 8 13 14 13 16 15 12 13 13 12 10 10 19 25 25 28 25 31 32 30 29 29 30 30 29 29 31 30 27 29 29 29
2 1 5 2 4 4 7 12 14 14 12 13 15 14 20 16 15 17 14 12 12 11 11 18 21 21 26 18 24 27 27 27 27 28 28 24 24 26 25 24 26 28 30 31
2 4 8 10 6 4 6 10 3 3 7 10 12 13 12 6 9 14 17 16 14 18 17 20 18 25 20 17 21 23 26 26 25 26 23 21 21 22 24 24 23 23 22 23
3 3 5 3 1 1 2 6 4 4 8 11 12 10 10 18 18 19 18 16 15 21 16 19 18 15 17 20 20 22 20 18 18 18 20 19 18 20 19 18 17 16 15 13
4 4 7 10 8 2 2 2 2 3 10 8 7 8 16 21 21 18 16 20 23 16 13 14 11 12 14 13 13 14 19 19 19 20 21 19 19 17 18 18 20 21 22 21
6 5 8 3 4 4 2 6 8 9 8 9 11 11 15 19 19 19 17 18 18 13 4 5 6 13 13 12 19 24 25 23 21 20 20 20 22 20 20 25 27 25 27 25
8 6 0 3 2 6 10 10 10 13 15 11 11 10 14 19 19 16 16 12 14 7 5 6 9 14 18 17 24 27 28 25 23 21 22 21 24 25 26 25 25 20 19 21
2 5 13 10 2 6 10 11 14 15 15 9 10 10 14 17 15 12 12 12 12 8 9 12 12 11 17 22 24 27 28 28 27 27 28 26 24 23 23 21 20 19 18 17
8 9 10 3 9 12 13 12 14 15 12 12 15 19 15 10 12 11 12 12 12 12 14 18 17 19 16 17 24 26 26 25 26 27 28 29 26 19 20 15 13 15 15 17
5 3 4 7 12 11 11 13 13 13 13 11 16 14 13 10 12 14 13 13 17 17 17 17 21 24 21 15 17 24 25 22 20 23 24 25 28 32 26 18 15 17 20 20
2 5 8 8 2 10 9 11 10 10 10 8 15 11 10 8 15 15 17 19 20 20 20 23 23 22 22 19 21 24 23 22 21 22 23 24 23 25 29 33 33 29 25 23
3 6 5 6 4 9 10 10 8 9 11 14 16 13 13 11 18 16 18 19 21 23 27 28 27 26 27 25 30 31 32 34 28 23 25 25 24 22 21 19 21 22 22 23
8 6 7 5 6 8 9 9 8 10 10 11 19 15 13 10 12 14 16 20 25 29 26 28 28 29 30 31 30 33 31 30 33 29 24 22 20 20 19 18 19 19 18 18
13 11 4 5 7 8 7 8 8 8 10 11 12 17 17 20 19 22 24 25 26 23 25 29 30 29 29 32 32 33 33 32 29 25 24 24 21 20 18 17 16 15 13 10
8 5 7 6 7 8 9 7 8 8 9 11 14 17 20 24 25 25 26 28 33 32 30 30 27 30 31 29 33 27 27 28 28 28 25 22 21 21 17 16 16 15 14 12
6 6 6 7 7 7 10 10 12 13 12 18 17 19 20 20 17 20 21 26 31 35 33 29 29 30 31 29 29 27 26 24 24 23 20 20 19 17 16 15 14 14 13 13
11 9 11 12 12 11 11 13 16 18 21 21 22 21 23 23 22 22 24 27 27 26 26 27 27 29 27 24 22 20 20 21 20 19 19 19 18 17 16 15 14 12 10 9
12 16 18 19 19 18 16 18 20 22 21 22 23 22 21 21 21 24 28 30 27 21 23 24 24 25 23 22 20 18 19 19 19 18 17 17 16 16 15 14 12 11 9 8
12 16 17 18 19 21 20 19 21 22 22 24 23 21 20 20 20 20 23 21 21 22 23 22 21 19 19 19 20 20 18 17 17 17 16 15 15 14 12 10 9 7 6 6
12 14 16 18 19 20 21 21 21 21 22 22 20 18 20 20 22 27 26 21 16 21 20 21 23 21 20 19 18 18 18 17 16 15 15 13 11 10 9 8 8 8 7 6
15 16 18 18 18 19 21 22 22 21 21 21 20 20 20 18 16 16 16 16 17 21 21 23 20 19 19 20 19 19 19 17 15 14 13 12 10 9 8 7 7 6 5 6
14 15 16 15 16 19 19 18 19 19 21 20 20 17 15 18 19 17 18 18 18 20 20 18 16 15 16 16 16 16 15 14 13 11 10 9 8 7 6 6 5 6 7 8
13 14 14 15 16 15 15 13 15 14 15 16 15 15 14 12 13 12 15 16 15 16 16 14 13 12 12 12 13 12 11 10 9 8 7 6 6 6 6 6 7 9 11 13
13 13 14 15 13 12 11 11 12 10 11 14 14 14 15 16 15 14 14 13 13 13 14 13 12 10 10 10 9 9 8 7 7 6 6 5 5 5 6 9 12 13 12 12
13 13 13 14 14 13 12 11 11 9 11 12 12 11 13 13 12 12 11 11 11 11 11 10 9 8 7 6 6 6 6 6 6 5 5 5 7 9 11 12 12 12 12 13
Wind_Direction
195 184 169 205 262 279 243 255 252 279 253 258 261 277 283 288 288 290 285 284 242 234 221 208 210 210 213 210 201 197 202 206 212 215 218 220 221 221 222 223 226 225 227 234
233 265 262 251 245 257 254 256 254 249 254 250 252 279 287 285 284 275 274 272 270 236 235 218 210 212 215 207 202 195 200 212 215 211 213 216 219 221 223 226 229 227 226 231
214 12 280 273 227 222 229 233 244 258 275 224 283 285 280 283 291 279 266 263 267 255 234 226 218 216 213 207 196 196 203 212 212 210 211 214 218 223 225 227 228 229 231 228
162 287 233 270 309 282 257 270 269 275 285 301 294 292 295 289 271 280 265 255 253 259 260 242 228 216 222 210 199 199 206 206 208 207 212 212 212 219 223 223 224 224 229 229
225 215 302 300 289 227 201 282 33 294 296 303 309 305 270 337 329 310 307 299 289 276 254 262 230 227 214 205 201 202 205 205 201 202 206 204 199 203 212 215 213 213 215 214
184 209 239 239 203 14 242 295 217 262 322 321 335 328 320 320 322 312 303 292 287 281 268 263 257 233 199 204 198 204 200 196 185 182 183 185 195 200 196 195 181 177 165 171
194 226 272 247 263 244 206 316 212 281 325 317 315 300 304 304 307 315 303 304 294 271 253 262 246 190 192 180 182 163 154 158 164 171 171 177 174 178 174 158 147 135 128 126
212 234 268 201 143 200 360 322 295 291 304 301 300 311 331 319 317 324 328 327 308 271 243 258 186 150 148 133 135 144 146 144 145 151 153 155 156 153 148 143 131 121 118 109
203 208 243 214 270 299 347 315 307 304 296 302 312 333 354 331 329 334 341 341 337 311 91 71 104 135 125 133 139 134 126 118 120 124 129 136 138 131 127 131 123 117 110 105
235 229 254 278 352 22 350 341 335 320 293 299 333 351 0 330 339 346 356 351 357 18 43 53 68 98 129 130 134 127 116 115 118 116 112 117 120 124 123 124 122 123 118 116
251 266 313 324 39 359 344 351 347 350 9 18 6 356 334 336 357 359 6 8 40 47 47 44 59 67 78 109 126 110 107 107 105 108 105 99 95 103 114 119 135 134 130 127
269 46 309 296 323 355 352 349 350 350 335 23 50 350 344 28 10 13 14 14 42 42 47 56 56 53 58 84 108 116 107 104 109 107 103 98 94 83 80 104 125 137 133 129
243 331 279 297 351 20 355 350 357 1 354 11 52 19 12 15 39 23 31 36 46 51 49 48 53 53 76 92 93 85 89 92 93 97 98 99 97 96 96 82 87 93 97 101
328 330 245 46 339 357 1 354 19 44 28 28 61 42 40 39 53 42 45 49 57 59 57 57 56 53 60 77 86 85 86 89 81 76 87 93 97 99 101 100 97 92 91 97
356 338 292 319 44 23 19 9 28 44 43 45 60 61 54 60 58 55 59 66 65 58 53 62 59 52 69 83 77 81 82 85 90 89 83 85 87 87 90 95 99 101 97 90
323 311 0 61 52 37 29 34 46 46 64 66 69 73 71 70 60 58 57 59 62 55 53 56 55 63 77 85 80 75 79 86 85 82 80 81 82 84 87 93 97 94 82 74
342 341 352 35 57 51 51 52 65 69 67 74 76 82 85 80 64 50 51 56 60 59 54 53 56 73 81 75 81 78 76 76 83 83 79 80 79 78 83 89 93 89 80 72
38 41 37 47 60 68 66 61 66 75 77 80 78 77 73 67 75 70 57 60 62 57 51 54 64 73 77 80 82 82 82 81 80 81 84 83 83 86 87 88 89 89 83 72
53 59 61 66 69 75 76 76 74 76 74 76 75 68 71 69 68 68 69 63 58 56 43 57 65 71 69 69 74 77 81 83 81 81 83 85 83 82 82 84 84 81 79 73
62 65 70 72 70 75 76 73 79 74 73 77 77 71 67 63 67 70 68 64 56 58 63 64 65 64 65 71 72 76 79 80 82 81 82 82 84 84 81 78 77 72 69 67
62 67 68 68 66 64 71 76 80 75 74 75 77 73 70 64 62 70 69 65 52 64 66 64 63 62 65 70 72 75 77 80 82 83 83 82 80 78 76 73 70 68 73 75
66 72 74 76 76 71 66 70 75 80 79 79 78 81 80 73 70 68 65 71 64 68 65 61 63 66 73 75 77 80 81 81 81 81 80 78 77 77 75 73 72 68 64 54
73 76 77 74 77 80 75 69 67 71 71 70 71 72 72 70 70 74 71 56 66 69 69 70 69 71 74 77 78 80 81 81 80 80 79 80 77 75 75 70 61 49 31 10
75 76 78 81 86 81 76 73 77 76 76 75 75 75 81 84 76 75 82 79 75 73 72 68 64 63 67 73 76 78 78 77 76 74 71 67 68 68 63 52 32 8 352 341
73 73 71 73 74 75 80 81 80 77 79 77 74 71 75 79 94 94 86 78 71 67 65 58 56 58 66 73 77 77 73 67 59 53 53 59 56 40 19 358 346 335 326 323
75 76 75 72 75 76 78 83 84 78 85 81 73 79 87 91 93 87 78 72 66 59 55 50 48 56 68 70 66 61 55 46 36 37 36 26 11 357 343 329 325 325 325 325
75 77 77 71 62 72 78 82 87 78 89 99 95 85 90 87 81 75 67 60 53 46 43 41 46 60 63 57 45 28 15 6 2 358 358 353 342 332 330 331 332 330 329 328